Weather History for KPCW - January, 2014

Change the Weather History Date:

Wednesday, January 1, 2014

  Actual Average (KTOL) Record (KTOL)
Temperature  
Mean Temperature 20 °F 26 °F  
Max Temperature 24 °F 33 °F 66 °F (1876)
Min Temperature 15 °F 19 °F -15 °F (1879)
Degree Days  
Heating Degree Days 46 39  
Month to date heating degree days 39  
Since 1 July heating degree days 2364  
Cooling Degree Days 0 0  
Month to date cooling degree days 0  
Year to date cooling degree days 0  
Moisture  
Dew Point 17 °F    
Average Humidity 88    
Maximum Humidity 93    
Minimum Humidity 79    
Precipitation  
Precipitation 0.00 in 0.08 in - ()
Month to date precipitation 0.08  
Year to date precipitation 0.08  
Snow  
Snow 0.00 in 0.30 in - ()
Month to date snowfall 0.3  
Since 1 July snowfall 9.8  
Snow Depth -    
Sea Level Pressure  
Sea Level Pressure 30.25 in    
Wind  
Wind Speed 7 mph (ENE)    
Max Wind Speed 18 mph    
Max Gust Speed -    
Visibility 5 miles    
Events Rain , Snow    
T = Trace of Precipitation, MM = Missing Value Source: NWS Daily Summary

Daily Weather History Graph

Daily Weather History Graph

Search for Another Location

Airport or City:

Trip Planner

Search our weather history database for the weather conditions in past years. The results will help you decide how hot, cold, wet, or windy it might be!

Date:

Astronomy

Jan. 01, 2014 Rise Set
Actual Time 7:58 AM EST 5:12 PM EST
Civil Twilight 7:26 AM EST 5:43 PM EST
Nautical Twilight 6:51 AM EST 6:18 PM EST
Astronomical Twilight 6:18 AM EST 6:52 PM EST
Moon 7:46 AM EST (1/1) 5:57 PM EST (1/1)
Length of Visible Light 10h 16m
Length of Day
9h 14m
New Moon, 0% of the Moon is Illuminated
Jan 1
New Moon
Jan 7
First Quarter
Jan 15
Full
Jan 24
Last Quarter
Jan 30
New

Hourly Weather History & Observations

Time (EST) Temp. Windchill Dew Point Humidity Pressure Visibility Wind Dir Wind Speed Gust Speed Precip Events Conditions
12:33 AM 19.4 °F 11.5 °F 15.8 °F 86% 30.32 in 3.0 mi West 5.8 mph - N/A Snow Light Snow
12:55 AM 19.4 °F 11.5 °F 15.8 °F 86% 30.33 in 3.0 mi WSW 5.8 mph - N/A Snow Light Snow
1:05 AM 19.4 °F 11.5 °F 15.8 °F 86% 30.32 in 3.0 mi WSW 5.8 mph - N/A Snow Light Snow
1:34 AM 19.4 °F 11.5 °F 15.8 °F 86% 30.31 in 2.5 mi WSW 5.8 mph - N/A Snow Light Snow
1:55 AM 19.4 °F 12.8 °F 15.8 °F 86% 30.30 in 3.0 mi SW 4.6 mph - N/A Snow Light Snow
2:14 AM 17.6 °F 12.3 °F 15.8 °F 93% 30.31 in 4.0 mi SW 3.5 mph - N/A Snow Light Snow
2:34 AM 17.6 °F - 15.8 °F 93% 30.31 in 3.0 mi Calm Calm - N/A Snow Light Snow
2:54 AM 17.6 °F - 15.8 °F 93% 30.30 in 2.5 mi Calm Calm - N/A Snow Light Snow
3:14 AM 17.6 °F - 14.0 °F 86% 30.31 in 3.0 mi Calm Calm - N/A Snow Light Snow
3:31 AM 17.6 °F - 14.0 °F 86% 30.31 in 2.5 mi Calm Calm - N/A Snow Light Snow
3:53 AM 17.6 °F - 14.0 °F 86% 30.30 in 3.0 mi Calm Calm - N/A Snow Light Snow
4:14 AM 17.6 °F - 15.8 °F 93% 30.29 in 2.0 mi Calm Calm - N/A Snow Light Snow
4:34 AM 17.6 °F - 15.8 °F 93% 30.29 in 2.0 mi Calm Calm - N/A Snow Light Snow
4:54 AM 19.4 °F - 15.8 °F 86% 30.30 in 3.0 mi Calm Calm - N/A Snow Light Snow
5:08 AM 21.2 °F - 17.6 °F 86% 30.30 in 2.5 mi Calm Calm - N/A Snow Light Snow
5:25 AM 17.6 °F - 15.8 °F 93% 30.29 in 2.0 mi Calm Calm - N/A Snow Light Snow
5:54 AM 17.6 °F - 15.8 °F 93% 30.30 in 2.5 mi Calm Calm - N/A Snow Light Snow
6:13 AM 17.6 °F - 15.8 °F 93% 30.30 in 2.5 mi Calm Calm - N/A Snow Light Snow
6:34 AM 17.6 °F - 15.8 °F 93% 30.30 in 3.0 mi Calm Calm - N/A Snow Light Snow
6:54 AM 17.6 °F - 15.8 °F 93% 30.29 in 3.0 mi Calm Calm - N/A Snow Light Snow
7:15 AM 17.6 °F - 15.8 °F 93% 30.30 in 3.0 mi Calm Calm - N/A Snow Light Snow
7:34 AM 15.8 °F - 12.2 °F 86% 30.31 in 3.0 mi Calm Calm - N/A Snow Light Snow
7:55 AM 17.6 °F - 14.0 °F 86% 30.31 in 3.0 mi Calm Calm - N/A Snow Light Snow
8:13 AM 17.6 °F 12.3 °F 14.0 °F 86% 30.30 in 3.0 mi NNE 3.5 mph - N/A Snow Light Snow
8:38 AM 17.6 °F 8.2 °F 15.8 °F 93% 30.30 in 5.0 mi NE 6.9 mph - N/A Snow Light Snow
8:46 AM 17.6 °F 7.3 °F 15.8 °F 93% 30.31 in 3.0 mi NE 8.1 mph - N/A Snow Light Snow
9:14 AM 17.6 °F 7.3 °F 14.0 °F 86% 30.32 in 2.0 mi NE 8.1 mph - N/A Snow Light Snow
9:34 AM 17.6 °F 5.7 °F 14.0 °F 86% 30.32 in 1.8 mi NE 10.4 mph - N/A Snow Light Snow
9:54 AM 17.6 °F 7.3 °F 15.8 °F 93% 30.32 in 1.5 mi NE 8.1 mph - N/A Snow Light Snow
10:14 AM 17.6 °F 6.4 °F 14.0 °F 86% 30.33 in 3.0 mi NE 9.2 mph - N/A Snow Light Snow
10:34 AM 17.6 °F 6.4 °F 15.8 °F 93% 30.33 in 1.8 mi NE 9.2 mph - N/A Snow Light Snow
10:36 AM 17.6 °F 5.7 °F 15.8 °F 93% 30.33 in 1.8 mi NE 10.4 mph - N/A Snow Light Snow
11:14 AM 17.6 °F 5.7 °F 14.0 °F 86% 30.31 in 1.2 mi NE 10.4 mph - N/A Snow Light Snow
11:34 AM 17.6 °F 5.0 °F 14.0 °F 86% 30.30 in 2.5 mi NE 11.5 mph - N/A Snow Light Snow
11:54 AM 17.6 °F 6.4 °F 14.0 °F 86% 30.30 in 2.0 mi NE 9.2 mph - N/A Snow Light Snow
12:08 PM 17.6 °F 5.0 °F 14.0 °F 86% 30.29 in 2.5 mi NE 11.5 mph - N/A Snow Light Snow
12:34 PM 15.8 °F 2.1 °F 12.2 °F 86% 30.28 in 4.0 mi NE 12.7 mph - N/A Snow Light Snow
12:54 PM 15.8 °F 1.4 °F 12.2 °F 86% 30.27 in 7.0 mi NE 13.8 mph - N/A Rain Light Freezing Rain
1:15 PM 17.6 °F 5.0 °F 12.2 °F 79% 30.26 in 7.0 mi NE 11.5 mph - N/A Rain Light Freezing Rain
1:34 PM 19.4 °F 5.0 °F 15.8 °F 86% 30.25 in 10.0 mi ENE 16.1 mph - N/A Rain Light Freezing Rain
1:54 PM 20.1 °F 5.9 °F 16.2 °F 85% 30.24 in 10.0 mi ENE 16.1 mph - N/A Rain Light Freezing Rain
2:15 PM 19.4 °F 4.1 °F 15.8 °F 86% 30.23 in 10.0 mi ENE 18.4 mph - N/A Rain Light Freezing Rain
2:34 PM 19.4 °F 4.5 °F 17.6 °F 93% 30.23 in 10.0 mi ENE 17.3 mph - N/A Rain Light Freezing Rain
2:54 PM 20.1 °F 5.9 °F 17.1 °F 88% 30.23 in 10.0 mi ENE 16.1 mph - N/A Rain Light Freezing Rain
3:15 PM 21.2 °F 6.4 °F 17.6 °F 86% 30.22 in 10.0 mi ENE 18.4 mph - N/A Rain Light Freezing Rain
3:34 PM 21.2 °F 7.3 °F 17.6 °F 86% 30.22 in 10.0 mi ENE 16.1 mph - N/A Rain Light Freezing Rain
3:54 PM 21.2 °F 6.8 °F 17.6 °F 86% 30.22 in 10.0 mi ENE 17.3 mph - N/A Rain Light Freezing Rain
4:14 PM 21.2 °F 7.3 °F 17.6 °F 86% 30.22 in 10.0 mi ENE 16.1 mph - N/A Rain Light Freezing Rain
4:34 PM 21.2 °F 7.8 °F 17.6 °F 86% 30.22 in 10.0 mi ENE 15.0 mph - N/A Rain Light Freezing Rain
4:55 PM 21.0 °F 7.6 °F 17.1 °F 85% 30.22 in 10.0 mi ENE 15.0 mph - N/A Rain Light Freezing Rain
5:14 PM 21.2 °F 6.4 °F 17.6 °F 86% 30.21 in 10.0 mi ENE 18.4 mph - N/A Rain Light Freezing Rain
5:34 PM 21.2 °F 8.3 °F 17.6 °F 86% 30.21 in 10.0 mi ENE 13.8 mph - N/A Rain Light Freezing Rain
5:55 PM 22.1 °F 8.5 °F 18.1 °F 85% 30.21 in 10.0 mi ENE 16.1 mph - N/A Rain Light Freezing Rain
6:14 PM 21.2 °F 8.3 °F 17.6 °F 86% 30.21 in 10.0 mi ENE 13.8 mph - N/A Rain Light Freezing Rain
6:34 PM 21.2 °F 8.3 °F 17.6 °F 86% 30.20 in 10.0 mi ENE 13.8 mph - N/A   Overcast
6:55 PM 23.0 °F 10.1 °F 17.6 °F 80% 30.21 in 10.0 mi ENE 15.0 mph - N/A   Overcast
7:14 PM 23.0 °F 8.7 °F 19.4 °F 86% 30.20 in 10.0 mi ENE 18.4 mph - N/A   Overcast
7:34 PM 23.0 °F 10.6 °F 17.6 °F 80% 30.20 in 10.0 mi ENE 13.8 mph - N/A   Overcast
7:54 PM 23.0 °F 9.2 °F 18.1 °F 82% 30.20 in 10.0 mi ENE 17.3 mph - N/A   Overcast
8:14 PM 23.0 °F 10.1 °F 19.4 °F 86% 30.20 in 10.0 mi East 15.0 mph - N/A   Overcast
8:34 PM 23.0 °F 9.6 °F 19.4 °F 86% 30.18 in 10.0 mi ENE 16.1 mph - N/A Rain Light Freezing Rain
8:49 PM 23.0 °F 8.7 °F 19.4 °F 86% 30.17 in 3.0 mi ENE 18.4 mph - N/A Snow Light Snow
9:14 PM 23.0 °F 10.6 °F 19.4 °F 86% 30.17 in 2.0 mi ENE 13.8 mph - N/A Snow Light Snow
9:34 PM 23.0 °F 9.6 °F 21.2 °F 93% 30.16 in 2.0 mi East 16.1 mph - N/A Snow Light Snow
9:38 PM 23.0 °F 10.1 °F 21.2 °F 93% 30.16 in 2.5 mi ENE 15.0 mph - N/A Snow Light Snow
10:14 PM 24.8 °F 13.4 °F 21.2 °F 86% 30.14 in 2.0 mi ENE 12.7 mph - N/A Snow Light Snow
10:34 PM 24.8 °F 13.4 °F 21.2 °F 86% 30.14 in 2.5 mi ENE 12.7 mph - N/A Snow Light Snow
10:55 PM 24.8 °F 12.9 °F 21.2 °F 86% 30.14 in 2.5 mi ENE 13.8 mph - N/A Snow Light Snow
11:14 PM 24.8 °F 12.4 °F 21.2 °F 86% 30.14 in 2.0 mi East 15.0 mph - N/A Snow Light Snow
11:28 PM 24.8 °F 11.9 °F 21.2 °F 86% 30.12 in 1.5 mi East 16.1 mph - N/A Snow Light Snow
11:43 PM 24.8 °F 12.9 °F 21.2 °F 86% 30.12 in 1.8 mi East 13.8 mph - N/A Snow Light Snow